Location: ????????
(55.6333°N, 37.7000°E)
Time: 06:32:42
(UTC+00:00)

Cosmos 1766 Rocket - Pass Details

Date: 19 May 2025
Orbit: 598 x 627 km, 82.5° (Epoch: 15 June)

Event Time Altitude Azimuth Distance (km) Brightness Sun altitude
Rises 20:15:28 0° 344° (NNW) 2,913 9.1 -12.9°
Reaches altitude 10° 20:17:47 10° 338° (NNW) 1,998 7.6 -13.0°
Maximum altitude 20:21:58 44° 267° (W) 864 4.4 -13.2°
Enters shadow 20:25:13 16° 200° (SSW) 1,637 5.2 -13.3°
